Location: London
(51.5074°N, 0.1278°W)
Time: 07:16:32
(UTC+00:00)

TIGRISAT - Pass Details

Date: 07 October 2020
Orbit: 606 x 688 km, 97.7° (Epoch: 30 October)

Event Time Altitude Azimuth Distance (km) Brightness Sun altitude
Rises 22:26:14 0° 5° (N) 3,002 ? -35.8°
Reaches altitude 10° 22:28:46 10° 351° (N) 2,099 ? -36.1°
Enters shadow 22:31:03 21° 325° (NW) 1,505 ? -36.3°
